FW8587 Weather Reports


time (UTC)temp
C
wind
direction
speed
KPH
gust
KPH
rain 1hr
cm
rain 24hr
cm
rain mn
cm
humidity
%
barometer
mb
20260505130206 12 73 0.0 0.0 0.00 0.00 0.00 86 1015.6
20260505124704 12 109 0.0 1.6 0.00 0.00 0.00 87 1015.4
20260505124205 12 109 0.0 1.6 0.00 0.00 0.00 87 1015.4
20260505123705 12 119 0.0 1.6 0.00 0.00 0.00 87 1015.3
20260505123205 12 153 0.0 0.0 0.00 0.00 0.00 88 1015.3
20260505122205 12 67 0.0 1.6 0.00 0.00 0.00 88 1015.2
20260505121707 12 57 0.0 0.0 0.00 0.00 0.00 89 1015.2
20260505121206 12 57 0.0 0.0 0.00 0.00 0.00 88 1015.2
20260505120705 12 57 0.0 0.0 0.00 0.00 0.00 89 1015.2
20260505115705 12 57 0.0 0.0 0.00 0.00 0.00 89 1015.1
20260505114706 12 57 0.0 0.0 0.00 0.00 0.00 89 1015.0
20260505114206 12 52 0.0 1.6 0.00 0.00 0.00 89 1015.1
20260505113205 12 51 0.0 0.0 0.00 0.00 0.00 89 1015.0
20260505112205 12 51 0.0 1.6 0.00 0.00 0.00 89 1015.1
20260505111705 12 51 0.0 1.6 0.00 0.00 0.00 89 1015.1
20260505111205 12 51 0.0 1.6 0.00 0.00 0.00 89 1015.2
20260505110206 12 51 0.0 0.0 0.00 0.00 0.00 89 1015.0
20260505102207 12 296 0.0 0.0 0.00 0.00 0.00 89 1014.7
20260505101707 12 296 0.0 0.0 0.00 0.00 0.00 89 1014.7
20260505100705 12 296 0.0 0.0 0.00 0.00 0.00 89 1014.8
20260505100207 12 296 0.0 0.0 0.00 0.00 0.00 89 1014.8
20260505095706 12 296 0.0 0.0 0.00 0.00 0.00 89 1014.8
20260505094705 12 296 0.0 0.0 0.00 0.00 0.00 89 1014.7
20260505094208 12 296 0.0 0.0 0.00 0.00 0.00 89 1014.6
20260505093705 12 296 0.0 0.0 0.00 0.00 0.00 89 1014.6
20260505093205 12 296 0.0 1.6 0.00 0.00 0.00 89 1014.5
20260505092705 11 294 0.0 0.0 0.00 0.00 0.00 89 1014.5
20260505092205 12 294 0.0 1.6 0.00 0.00 0.00 89 1014.5
20260505091705 12 297 0.0 0.0 0.00 0.00 0.00 89 1014.5
20260505090705 12 297 0.0 0.0 0.00 0.00 0.00 89 1014.5
20260505090205 12 297 0.0 0.0 0.00 0.00 0.00 89 1014.4
20260505085205 12 297 0.0 3.2 0.00 0.00 0.00 89 1014.5
20260505084206 12 104 0.0 1.6 0.00 0.00 0.00 89 1014.4
20260505083708 12 106 0.0 1.6 0.00 0.00 0.00 89 1014.4
20260505083205 12 106 0.0 1.6 0.00 0.00 0.00 89 1014.4
20260505082705 12 117 0.0 1.6 0.00 0.00 0.00 89 1014.4
20260505082206 12 257 0.0 0.0 0.00 0.00 0.00 89 1014.5
20260505081708 12 257 0.0 0.0 0.00 0.00 0.00 89 1014.5
20260505081204 12 257 0.0 0.0 0.00 0.00 0.00 89 1014.5
20260505080705 12 257 0.0 0.0 0.00 0.00 0.00 89 1014.5
20260505080207 11 257 0.0 1.6 0.00 0.00 0.00 89 1014.6
20260505075704 11 74 0.0 0.0 0.00 0.00 0.00 89 1014.6
20260505075206 11 74 0.0 3.2 0.00 0.00 0.00 89 1014.5
20260505074704 11 69 0.0 1.6 0.00 0.00 0.00 89 1014.5
20260505074205 11 73 0.0 1.6 0.00 0.00 0.00 89 1014.3
20260505073704 11 77 0.0 1.6 0.00 0.00 0.00 90 1014.3
20260505073204 11 86 0.0 3.2 0.00 0.00 0.00 90 1014.2
20260505072204 11 308 0.0 3.2 0.00 0.00 0.00 90 1014.1
20260505071705 11 313 0.0 1.6 0.00 0.00 0.00 90 1014.0
20260505071205 11 68 0.0 3.2 0.00 0.00 0.00 90 1013.9
20260505070709 11 96 0.0 3.2 0.00 0.00 0.00 90 1013.8
20260505070205 11 13 0.0 0.0 0.00 0.00 0.00 90 1013.7
20260505065705 11 13 0.0 0.0 0.00 0.00 0.00 90 1013.7
20260505065206 11 13 0.0 1.6 0.00 0.00 0.00 90 1013.7
20260505064705 11 13 0.0 1.6 0.00 0.00 0.00 90 1013.6
20260505063705 11 307 0.0 0.0 0.00 0.00 0.00 90 1013.6
20260505063205 11 307 0.0 0.0 0.00 0.00 0.00 90 1013.6
20260505062707 11 307 0.0 0.0 0.00 0.00 0.00 90 1013.6
20260505062204 11 307 0.0 0.0 0.00 0.00 0.00 89 1013.6
20260505061205 11 306 0.0 0.0 0.00 0.00 0.00 90 1013.5
20260505060705 11 306 0.0 1.6 0.00 0.00 0.00 90 1013.5
20260505060206 11 306 0.0 0.0 0.00 0.00 0.00 89 1013.4
20260505055705 11 306 0.0 0.0 0.00 0.00 0.00 89 1013.3
20260505055208 11 306 0.0 0.0 0.00 0.00 0.00 89 1013.2
20260505054704 11 306 0.0 0.0 0.00 0.00 0.00 89 1013.2
20260505054204 11 306 0.0 1.6 0.00 0.00 0.00 88 1013.2
20260505053705 11 306 0.0 0.0 0.00 0.00 0.00 88 1013.2
20260505053204 11 306 0.0 0.0 0.00 0.00 0.00 88 1013.3
20260505052706 11 306 0.0 0.0 0.00 0.00 0.00 87 1013.3
20260505052204 12 306 0.0 1.6 0.00 0.00 0.00 87 1013.2
20260505051704 12 306 0.0 0.0 0.00 0.00 0.00 87 1013.2
20260505051206 12 306 0.0 0.0 0.00 0.00 0.00 86 1013.2
20260505050706 12 306 0.0 0.0 0.00 0.00 0.00 86 1013.2
20260505041705 13 297 0.0 1.6 0.00 0.00 0.00 82 1012.8
20260505041207 13 297 0.0 1.6 0.00 0.00 0.00 81 1012.8
20260505040705 13 297 0.0 1.6 0.00 0.00 0.00 81 1012.8
20260505040205 14 297 0.0 3.2 0.00 0.00 0.00 80 1012.6
20260505035704 14 237 0.0 1.6 0.00 0.00 0.00 79 1012.6
20260505035204 15 235 0.0 3.2 0.00 0.00 0.00 78 1012.5
20260505034705 15 235 0.0 0.0 0.00 0.00 0.00 78 1012.4
20260505034208 15 235 1.6 4.8 0.00 0.00 0.00 77 1012.3
20260505033704 15 325 0.0 0.0 0.00 0.00 0.00 76 1012.2
20260505033204 15 325 0.0 3.2 0.00 0.00 0.00 76 1012.1
20260505032205 16 245 0.0 4.8 0.00 0.00 0.00 74 1011.9
20260505030708 16 337 1.6 4.8 0.00 0.00 0.00 71 1011.8
20260505030205 17 284 1.6 4.8 0.00 0.00 0.00 70 1011.7
20260505025204 17 320 1.6 4.8 0.00 0.00 0.00 68 1011.6
20260505024705 17 313 1.6 4.8 0.00 0.00 0.00 66 1011.6
20260505024207 18 338 1.6 4.8 0.00 0.00 0.00 65 1011.6
20260505023704 18 250 3.2 8.0 0.00 0.00 0.00 63 1011.5
20260505022707 18 358 1.6 4.8 0.00 0.00 0.00 61 1011.4
20260505021706 19 283 3.2 12.9 0.00 0.00 0.00 60 1011.3
20260505020705 20 281 1.6 9.7 0.00 0.00 0.00 60 1011.2
20260505020205 20 276 1.6 4.8 0.00 0.00 0.00 60 1011.2
20260505015707 20 318 1.6 9.7 0.00 0.00 0.00 58 1011.1
20260505015207 20 294 1.6 8.0 0.00 0.00 0.00 58 1011.1
20260505014705 21 275 0.0 3.2 0.00 0.00 0.00 57 1011.0
20260505014207 21 267 3.2 11.3 0.00 0.00 0.00 55 1011.1
20260505013204 21 294 1.6 4.8 0.00 0.00 0.00 52 1011.2
20260505012706 21 247 0.0 4.8 0.00 0.00 0.00 53 1011.2
20260505011704 22 235 1.6 4.8 0.00 0.00 0.00 55 1011.3
20260505011204 22 243 1.6 4.8 0.00 0.00 0.00 54 1011.2
20260505010704 22 240 3.2 4.8 0.00 0.00 0.00 53 1011.2
20260505010207 22 311 3.2 4.8 0.00 0.00 0.00 54 1011.1
20260505005205 22 271 1.6 4.8 0.00 0.00 0.00 48 1011.1
20260505004705 22 317 1.6 4.8 0.00 0.00 0.00 49 1011.0
20260505004207 22 322 3.2 8.0 0.00 0.00 0.00 47 1011.0
20260505003704 23 320 3.2 12.9 0.00 0.00 0.00 46 1011.0
20260505003204 23 291 1.6 4.8 0.00 0.00 0.00 48 1010.9
20260505002705 23 274 3.2 4.8 0.00 0.00 0.00 48 1011.0
20260505002205 23 302 3.2 4.8 0.00 0.00 0.00 48 1011.0
20260505001705 23 311 3.2 4.8 0.00 0.00 0.00 48 1010.9
20260505001204 23 324 3.2 8.0 0.00 0.00 0.00 48 1010.9
20260505000706 23 287 3.2 9.7 0.00 0.00 0.00 48 1010.9
20260505000205 23 326 3.2 8.0 0.00 0.00 0.00 48 1010.9
20260504235704 24 295 1.6 8.0 0.00 0.00 0.00 48 1010.9
20260504235205 24 221 3.2 4.8 0.00 0.00 0.00 48 1010.9
20260504234706 24 175 1.6 4.8 0.00 0.00 0.00 50 1010.8
20260504233704 24 304 1.6 4.8 0.00 0.00 0.00 48 1010.8
20260504233204 25 291 3.2 9.7 0.00 0.00 0.00 48 1010.9
20260504232704 25 219 1.6 9.7 0.00 0.00 0.00 47 1010.8
20260504232205 25 178 1.6 4.8 0.00 0.00 0.00 49 1010.8
20260504231707 25 311 3.2 4.8 0.00 0.00 0.00 47 1010.8
20260504231205 25 317 3.2 9.7 0.00 0.00 0.00 48 1010.8
20260504230206 25 250 3.2 8.0 0.00 0.00 0.00 50 1011.0
20260504225705 25 279 3.2 4.8 0.00 0.00 0.00 50 1010.9
20260504225204 25 342 3.2 8.0 0.00 0.00 0.00 52 1010.9
20260504224204 25 343 3.2 11.3 0.00 0.00 0.00 49 1010.9
20260504223706 25 195 1.6 4.8 0.00 0.00 0.00 53 1010.9
20260504223204 25 205 3.2 8.0 0.00 0.00 0.00 50 1010.8
20260504222704 25 238 1.6 4.8 0.00 0.00 0.00 51 1010.8
20260504222204 25 321 3.2 4.8 0.00 0.00 0.00 53 1011.0
20260504221707 25 259 3.2 4.8 0.00 0.00 0.00 50 1011.0
20260504221205 25 316 3.2 4.8 0.00 0.00 0.00 48 1011.1
20260504220705 25 131 3.2 4.8 0.00 0.00 0.00 49 1011.0
20260504220208 25 139 1.6 4.8 0.00 0.00 0.00 50 1011.0
20260504215204 25 175 1.6 4.8 0.00 0.00 0.00 48 1011.3
20260504214707 25 311 1.6 4.8 0.00 0.00 0.00 50 1011.4
20260504213704 25 226 1.6 4.8 0.00 0.00 0.00 52 1011.4
20260504213207 25 277 1.6 8.0 0.00 0.00 0.00 51 1011.5
20260504212704 24 236 1.6 4.8 0.00 0.00 0.00 50 1011.6
20260504212204 24 199 3.2 4.8 0.00 0.00 0.00 50 1011.6
20260504211704 24 274 1.6 11.3 0.00 0.00 0.00 50 1011.6
20260504211207 25 247 3.2 4.8 0.00 0.00 0.00 50 1011.7
20260504210704 24 310 1.6 4.8 0.00 0.00 0.00 51 1011.7
20260504205704 23 267 1.6 3.2 0.00 0.00 0.00 56 1011.8
20260504205207 23 335 3.2 4.8 0.00 0.00 0.00 54 1011.8
20260504204705 23 316 1.6 4.8 0.00 0.00 0.00 58 1011.9
20260504204204 23 277 3.2 8.0 0.00 0.00 0.00 58 1012.0
20260504203704 23 261 1.6 4.8 0.00 0.00 0.00 58 1011.9
20260504203204 23 148 1.6 4.8 0.00 0.00 0.00 58 1012.0
20260504202704 23 64 3.2 11.3 0.00 0.00 0.00 58 1011.9
20260504202206 23 288 1.6 4.8 0.00 0.00 0.00 57 1011.9
20260504201704 23 247 3.2 4.8 0.00 0.00 0.00 58 1012.0
20260504201204 22 262 0.0 4.8 0.00 0.00 0.00 59 1012.0
20260504200704 23 60 1.6 4.8 0.00 0.00 0.00 58 1012.1
20260504200205 22 119 1.6 9.7 0.00 0.00 0.00 59 1012.2
20260504194703 22 70 1.6 4.8 0.00 0.00 0.00 60 1012.3
20260504194204 22 121 3.2 4.8 0.00 0.00 0.00 60 1012.3
20260504193703 22 92 3.2 11.3 0.00 0.00 0.00 60 1012.3
20260504193204 22 217 0.0 4.8 0.00 0.00 0.00 62 1012.4
20260504192704 21 97 1.6 4.8 0.00 0.00 0.00 63 1012.3
20260504192204 21 115 3.2 8.0 0.00 0.00 0.00 63 1012.4
20260504191204 20 136 1.6 9.7 0.00 0.00 0.00 65 1012.4
20260504190706 21 93 4.8 11.3 0.00 0.00 0.00 63 1012.4
20260504190209 21 89 1.6 4.8 0.00 0.00 0.00 64 1012.6
20260504185706 21 331 3.2 4.8 0.00 0.00 0.00 64 1012.6
20260504185206 20 284 1.6 4.8 0.00 0.00 0.00 65 1012.6
20260504184706 20 299 1.6 4.8 0.00 0.00 0.00 66 1012.7
20260504184206 20 320 1.6 4.8 0.00 0.00 0.00 65 1012.7
20260504183707 20 91 1.6 4.8 0.00 0.00 0.00 65 1012.7
20260504183205 20 286 3.2 9.7 0.00 0.00 0.00 68 1012.7
20260504182706 19 326 1.6 3.2 0.00 0.00 0.00 68 1012.7
20260504182206 19 177 1.6 4.8 0.00 0.00 0.00 68 1012.7
20260504181206 18 120 3.2 4.8 0.00 0.00 0.00 68 1012.7
20260504175705 18 103 0.0 9.7 0.00 0.00 0.00 71 1012.7
20260504175205 17 217 1.6 4.8 0.00 0.00 0.00 74 1012.7
20260504174706 17 305 1.6 4.8 0.00 0.00 0.00 74 1012.8
20260504174208 17 252 0.0 3.2 0.00 0.00 0.00 76 1012.7
20260504173705 16 45 0.0 1.6 0.00 0.00 0.00 76 1012.8
20260504173205 16 284 1.6 4.8 0.00 0.00 0.00 76 1012.7
20260504172705 16 304 0.0 1.6 0.00 0.00 0.00 77 1012.7
20260504172205 16 294 0.0 1.6 0.00 0.00 0.00 78 1012.7
20260504171708 16 19 0.0 1.6 0.00 0.00 0.00 79 1012.6
20260504170706 15 120 1.6 4.8 0.00 0.00 0.00 79 1012.6
20260504170206 15 300 1.6 4.8 0.00 0.00 0.00 80 1012.6
20260504160205 13 9 1.6 4.8 0.00 0.00 0.00 85 1012.3
20260504150208 11 159 0.0 3.2 0.00 0.00 0.00 88 1012.1
20260504141207 11 290 0.0 0.0 0.00 0.00 0.00 86 1011.4
20260504140705 11 290 0.0 1.6 0.00 0.00 0.00 87 1011.3
20260504140209 11 351 1.6 3.2 0.00 0.00 0.00 86 1011.3